{"data":{"norad_id":64135,"intl_designator":"2025-111N","name":"STARLINK-11712 [DTC]","alt_names":[],"object_type":"PAYLOAD","status":"ACTIVE","operator":null,"country":"US","launch_date":"2025-05-24","launch_site_code":"AFETR","launch_vehicle":null,"mission":null,"orbit_class":"UNKNOWN","rcs_meters":null,"size_class":null,"mass_kg":null,"dimensions":null,"purposes":["comms"],"wikipedia_slug":null,"has_3d_model":false,"image_url":null,"decayed_at":null,"tle_current":{"epoch":"2026-05-24T15:57:31.665312Z","epoch_age_seconds":100133,"freshness":"FRESH","line1":"1 64135U 25111N   26144.66494983  .00177742  00000+0  13559-2 0  9997","line2":"2 64135  43.0044 236.2852 0002873 267.8754  92.1785 15.70897480 58580","mean_motion":15.7089748,"eccentricity":0.0002873,"inclination_deg":43.0044,"raan_deg":236.2852,"arg_perigee_deg":267.8754,"mean_anomaly_deg":92.1785,"bstar":0.0013559,"rev_number":5858,"period_min":91.667344198681,"perigee_km":354.39596538791,"apogee_km":358.26559057314,"semimajor_km":6734.4677779805,"source":"CELESTRAK","updated_at":"2026-05-25T13:38:20.273870Z"}}}